Regional Weather Roundup
Issued by NWS

Home | Current Version | Previous Version | Text Only | Print | Product List | Glossary On
Versions: 1 2 3 4 5 6 7 8 9 10 11 12 13 14 15 16 17 18 19 20 21 22 23 24 25 26 27 28 29 30 31 32 33 34 35 36 37 38 39 40 41 42 43 44 45 46 47 48 49 50
000
ASUS44 KLIX 021811
RWRLA
LOUISIANA WEATHER ROUNDUP
NATIONAL WEATHER SERVICE NEW ORLEANS LA
100 PM CDT WED SEP 02 2015

NOTE: "FAIR" INDICATES FEW OR NO CLOUDS BELOW 12,000 FEET WITH NO
      SIGNIFICANT WEATHER AND/OR OBSTRUCTIONS TO VISIBILITY.
      SKY/WX - SKY CONDITION AND SIGNIFICANT WEATHER.
      TMP - AIR TEMPERATURE.    DP   - DEWPOINT TEMPERATURE.
      RH  - RELATIVE HUMIDITY.  PRES - PRESSURE.
      HX  - HEAT INDEX.         WCI  - WIND CHILL INDEX.

*  THESE STATIONS ARE NOT NWS OR FAA STATIONS AND ARE NOT UNDER
   NWS QUALITY CONTROL.

LAZ040-048-061>063-065-066-069-021900-
SOUTHEAST LOUISIANA

CITY           SKY/WX    TMP DP  RH WIND       PRES   REMARKS
N.O. AUDUBON     N/A     76  75  99 MISG        N/A
6HR MIN TEMP:  76; 6HR MAX TEMP:  90; 6HR PCP:  0.12;

N.O. INTL ARPT TSTM      78  73  84 S12       30.09S
6HR MIN TEMP:  78; 6HR MAX TEMP:  85; 6HR PCP:  0.08;

N.O. LAKEFRONT LGT RAIN  82  76  81 S8        30.09S
6HR MIN TEMP:  80; 6HR MAX TEMP:  85; 6HR PCP:  0.02;

N.O. DOWNTOWN* CLOUDY    81  73  78 S7        30.10S
6HR MIN TEMP:  81; 6HR MAX TEMP:  88; 6HR PCP:  0.07;

RESERVE*       FAIR      84  76  74 SE6       30.07F
6HR MIN TEMP:  78; 6HR MAX TEMP:  89;

SLIDELL        FAIR      87  75  67 S9        30.07S HX  96
6HR MIN TEMP:  73; 6HR MAX TEMP:  89;

BATON ROUGE    FAIR      85  72  65 NE6       30.06F
6HR MIN TEMP:  76; 6HR MAX TEMP:  88; 6HR PCP: TRACE;

BOOTHVILLE     FAIR      87  74  64 E6        30.07F HX  95
6HR MIN TEMP:  82; 6HR MAX TEMP:  88; 6HR PCP:  0.01;

BELLE CHASSE   TSTM      76  72  87 CALM      30.09S FOG
BOGALUSA*      NOT AVBL
GALLIANO*      LGT RAIN  75  74  96 CALM      30.09F
6HR MIN TEMP:  73; 6HR MAX TEMP:  83; 6HR PCP:  2.09;

NEW ROADS*     FAIR      89  71  56 E9        30.06F HX  95
6HR MIN TEMP:  74; 6HR MAX TEMP:  89;

GONZALES*      FAIR      84  74  72 SE3       30.06S
6HR MIN TEMP:  75; 6HR MAX TEMP:  86;

HAMMOND*       FAIR      88  68  51 SE5       30.09S
HOUMA*         NOT AVBL
PORT FOURCHON* CLEAR     77  73  88 NW7       30.10R

$$

LAZ041-044-053-054-021900-
SOUTHWEST LOUISIANA

CITY           SKY/WX    TMP DP  RH WIND       PRES   REMARKS
LAKE CHARLES   FAIR      88  71  57 SE9       30.04F
6HR MIN TEMP:  74; 6HR MAX TEMP:  89;

LAFAYETTE      FAIR      87  71  58 E8        30.06F
6HR MIN TEMP:  74; 6HR MAX TEMP:  88;

PATTERSON      FAIR      77  73  88 SE10G16   30.10R
6HR MIN TEMP:  77; 6HR MAX TEMP:  84;

SALT POINT       N/A     77  75  93 SE8       30.07S
6HR MIN TEMP:  77; 6HR MAX TEMP:  85;

NEW IBERIA     FAIR      85  73  67 E10       30.06F
6HR MIN TEMP:  76; 6HR MAX TEMP:  88;

CHENAULT AIRPK MOSUNNY   88  70  55 E13       30.05F

$$

LAZ027-028-021900-
CENTRAL LOUISIANA

CITY           SKY/WX    TMP DP  RH WIND       PRES   REMARKS
FORT POLK      CLOUDY    84  72  67 NE7       30.05F
6HR MIN TEMP:  73; 6HR MAX TEMP:  84;

ALEXANDRIA INT CLOUDY    91  67  44 VRB5      30.04F
6HR MIN TEMP:  73; 6HR MAX TEMP:  92; 6HR PCP: TRACE;

ALEXANDRIA     FAIR      92  65  40 VRB3      30.05F
6HR MIN TEMP:  75; 6HR MAX TEMP:  95;


$$

LAZ001-002-021900-
NORTHWEST LOUISIANA

CITY           SKY/WX    TMP DP  RH WIND       PRES   REMARKS
SHREVEPORT     PTSUNNY   88  65  46 CALM      30.06F
6HR MIN TEMP:  73; 6HR MAX TEMP:  89;

BARKSDALE AFB  FAIR      89  68  49 NE3       30.06F
6HR MIN TEMP:  73; 6HR MAX TEMP:  89;

DTN SHREVEPORT FAIR      87  68  52 VRB3      30.06F
6HR MIN TEMP:  74; 6HR MAX TEMP:  88;


$$

LAZ014-016-021900-
NORTHEAST LOUISIANA

CITY           SKY/WX    TMP DP  RH WIND       PRES   REMARKS
MONROE         FAIR      93  71  48 VRB5      30.05F HX 100
6HR MIN TEMP:  73; 6HR MAX TEMP:  94;

TALLULAH       FAIR      86  69  56 N5        30.07S
6HR MIN TEMP:  74; 6HR MAX TEMP:  87;


$$



USA.gov is the U.S. government's official web portal to all federal, state and local government web resources and services.